This is the latest recevied weather packets stored in our database for station/object KJ4AJP. If no packets are shown the sender has not sent any weather packets the latest 10 day(s).
| Time | Temp. | Humidity | Pressure | Rain* | Wind** | Luminosity | Snow |
|---|---|---|---|---|---|---|---|
| 1777233251 | 28.89° C | 41% | 1011.6 hPa | 0 mm | - | 353 W/m² | - |
| 1777232946 | 29.44° C | 44% | 1011.6 hPa | 0 mm | - | 443 W/m² | - |
| 1777232645 | 28.89° C | 47% | 1011.3 hPa | 0 mm | - | 711 W/m² | - |
| 1777232343 | 28.33° C | 42% | 1011.6 hPa | 0 mm | - | 744 W/m² | - |
| 1777232039 | 27.78° C | 44% | 1011.6 hPa | 0 mm | - | 557 W/m² | - |
| 1777231736 | 27.78° C | 43% | 1011.7 hPa | 0 mm | - | 393 W/m² | - |
| 1777231433 | 28.33° C | 42% | 1011.8 hPa | 0 mm | - | 323 W/m² | - |
| 1777231129 | 28.33° C | 46% | 1011.8 hPa | 0 mm | - | 403 W/m² | - |
| 1777230824 | 28.33° C | 45% | 1011.9 hPa | 0 mm | - | 286 W/m² | - |
| 1777230520 | 28.89° C | 45% | 1011.9 hPa | 0 mm | - | 359 W/m² | - |
| 1777230217 | 28.89° C | 46% | 1012.1 hPa | 0 mm | - | 563 W/m² | - |
| 1777229913 | 28.89° C | 42% | 1012.1 hPa | 0 mm | - | 396 W/m² | - |
| 1777229610 | 28.89° C | 42% | 1012.1 hPa | 0 mm | - | 848 W/m² | - |
| 1777229306 | 28.89° C | 45% | 1012.3 hPa | 0 mm | - | 604 W/m² | - |
| 1777229004 | 28.33° C | 45% | 1012.3 hPa | 0 mm | - | 618 W/m² | - |
| 1777228700 | 27.78° C | 45% | 1012.3 hPa | 0 mm | - | 398 W/m² | - |
| 1777228396 | 28.33° C | 44% | 1012.2 hPa | 0 mm | - | 359 W/m² | - |
| 1777228092 | 27.78° C | 43% | 1012.2 hPa | 0 mm | - | 461 W/m² | - |
| 1777227791 | 28.33° C | 43% | 1012.2 hPa | 0 mm | - | 620 W/m² | - |
| 1777227489 | 28.89° C | 41% | 1012.4 hPa | 0 mm | - | 557 W/m² | - |
| 1777227189 | 28.89° C | 41% | 1012.6 hPa | 0 mm | - | 732 W/m² | - |
| 1777226886 | 28.89° C | 44% | 1012.8 hPa | 0 mm | - | 678 W/m² | - |
| 1777226584 | 28.33° C | 43% | 1012.8 hPa | 0 mm | - | 819 W/m² | - |
| 1777226280 | 28.33° C | 43% | 1012.6 hPa | 0 mm | - | 804 W/m² | - |
| 1777225976 | 27.78° C | 47% | 1012.9 hPa | 0 mm | - | 847 W/m² | - |
* Rain latest hour (hover to see other rain measurements)
** Current wind speed in m/s (hover to see current wind gust speed)